COSMOS 1275 DEB, 12649

Orbit data source: Space-Track

COSMOS 1275 DEB, 12649 is space debris in LEO originally from a launch on Thu, 04 Jun 1981 UTC launched from the Plesetsk Missile And Space Complex (PKMTR). Debris objects in space refer to the collection of defunct objects orbiting the Earth. Examples of debris include non-operational satellites, rocket bodies, and fragments generated from explosions, collisions, or faulty payload assembly.

Loading next visibility...
Identifier
12649, 1981-053D
Orbit
LEO
Country
Flag of CISCIS
Related business
Manufacturer
Unknown
Mission
Spacecraft
Bus & Motor
Unknown
Mass
Unknown
Launch date (UTC)
1981-06-04 (44 years ago)
Launch vehicle
Unknown
Launch site
Plesetsk Missile And Space Complex (PKMTR)
Object type
Payload
Rocket body
Debris
Shape & HBR
Unknown shape, 0.2 m
Radar Cross Section
Medium (>0.1 m² and <1 m²)

Expand to show TLE details & history
Last TLE update: 7 hours ago

TLE from 7 hours ago
0 COSMOS 1275 DEB
1 12649U 81053D   25291.16231175  .00000824  00000-0  75713-3 0  9994
2 12649  82.9206  15.7378 0048676 115.3026 317.4089 13.81158637217882
Epoch: 2025-10-18T03:53Z
TLE epoch observation values (Epoch: 2025-10-18T03:53:43.735Z)
Latitude
71.08071°
Longitude
-48.46428°
Altitude
945.838 km
Speed
7.398 km/s
True Right ascension
02h 27m 27s
True Declination
70° 58' 40"
Sunlit
Object was in daylight at epoch
Visualization orbit readout
Latitude
Unknown
Longitude
Unknown
Altitude
Unknown
Speed
Unknown
Apparent Right ascension
Unknown
Apparent Declination
Unknown
Sunlit
N/A
Visualization observer readout
Local Sidereal Time
05:51:46
Azimuth
Unknown
Elevation
Unknown
Doppler factor
Unknown
Orbital elements
Apogee altitude
992.625 km
Perigee altitude
921.217 km
Semi-major axis
7,335.058 km
Eccentricity
0.00487
Inclination
82.9206°
RAAN
15.7378°
Arg. of periapsis
115.3026°
True anomaly
317.02972°
Mean anomaly
317.4089°
Eccentric anomaly
317.21948°
Mean motion
3.45492 °/min
Orbital period
104.2 mins
BSTAR
0.00075713
Loading maneuver chart data...
Computing Atmospheric mass density...

Documentation

Showing up to 5 results
|